Location: Haliburton Scout Reserve
(45.0900°N, 78.3200°W)
Time: 10:36:09
(UTC-05:00)

Vanguard 2 - Visible Passes

Search period start: 27 January 2023 00:00
Search period end: 06 February 2023 00:00
Orbit: 554 x 2930 km, 32.9° (Epoch: 26 January)

Date Brightness Start Highest point End Pass type
(mag) Time Alt. Az. Time Alt. Az. Time Alt. Az.
27 Jan 10.7 02:37:45 36° SE 02:37:45 36° SE 02:44:46 10° ESE visible
27 Jan 10.3 04:39:05 39° SW 04:41:46 41° SSW 04:52:24 10° SE visible
27 Jan 10.8 06:41:47 10° W 06:49:55 18° SW 06:56:20 10° S visible
28 Jan 10.6 02:53:30 40° SE 02:53:30 40° SE 03:01:27 10° ESE visible
28 Jan 10.4 04:54:49 33° SW 04:58:13 37° SSW 05:08:34 10° SSE visible
28 Jan 11.0 07:00:44 10° WSW 07:05:58 13° SW 07:10:28 10° SSW visible
29 Jan 11.6 01:07:57 13° ESE 01:07:57 13° ESE 01:08:52 10° ESE visible
29 Jan 10.5 03:09:16 42° SSE 03:09:16 42° SSE 03:18:01 10° ESE visible
29 Jan 10.5 05:10:35 28° WSW 05:14:34 31° SW 05:24:30 10° SSE visible
29 Jan 11.3 20:40:55 10° S 20:42:37 13° SSE 20:42:37 13° SSE visible
30 Jan 11.5 01:23:44 16° ESE 01:23:44 16° ESE 01:25:41 10° ESE visible
30 Jan 10.5 03:25:03 42° SSE 03:25:03 42° SSE 03:34:28 10° SE visible
30 Jan 10.7 05:26:23 23° WSW 05:30:48 26° SW 05:40:06 10° S visible
30 Jan 11.2 20:55:34 10° S 20:58:42 17° S 20:58:42 17° S visible
31 Jan 11.4 01:39:34 19° ESE 01:39:34 19° ESE 01:42:25 10° ESE visible
31 Jan 10.5 03:40:53 40° S 03:40:53 40° S 03:50:45 10° SE visible
31 Jan 10.9 05:42:13 18° WSW 05:46:55 21° SW 05:55:14 10° S visible
31 Jan 11.1 21:10:50 10° SSW 21:14:47 20° S 21:14:47 20° S visible
01 Feb 11.3 01:55:26 21° ESE 01:55:26 21° ESE 01:59:03 10° ESE visible
01 Feb 10.6 03:56:46 37° SSW 03:56:46 37° SSW 04:06:51 10° SSE visible
01 Feb 11.1 05:58:06 13° WSW 06:02:57 15° SW 06:09:31 10° SSW visible
01 Feb 11.1 19:25:37 10° SSE 19:29:31 12° SE 19:29:31 12° SE visible
01 Feb 11.0 21:26:30 10° SSW 21:30:52 23° SSW 21:30:52 23° SSW visible
02 Feb 11.2 02:11:20 23° SE 02:11:20 23° SE 02:15:36 10° ESE visible
02 Feb 10.7 04:12:40 32° SSW 04:12:40 32° SSW 04:22:42 10° SSE visible
02 Feb 11.3 06:16:54 10° WSW 06:18:54 10° SW 06:20:49 10° SW visible
02 Feb 10.9 19:38:55 10° S 19:45:35 17° SE 19:45:35 17° SE visible
02 Feb 10.9 21:42:27 10° SW 21:46:56 24° SSW 21:46:56 24° SSW visible
03 Feb11.900:25:57ESE00:25:57ESE23:48:16WSWvisible
03 Feb 11.2 02:27:17 24° SE 02:27:17 24° SE 02:32:00 10° SE visible
03 Feb 10.8 04:28:38 27° SSW 04:28:38 27° SSW 04:38:12 10° SSE visible
03 Feb 10.7 19:53:38 10° S 20:01:38 23° SE 20:01:38 23° SE visible
03 Feb 10.9 21:58:38 10° SW 22:02:59 25° SSW 22:02:59 25° SSW visible
04 Feb11.900:41:56ESE00:41:56ESE00:04:19WSWvisible
04 Feb 11.1 02:43:16 24° SSE 02:43:16 24° SSE 02:48:13 10° SE visible
04 Feb 11.0 04:44:37 22° SW 04:44:37 22° SW 04:53:11 10° S visible
04 Feb 10.5 20:08:59 10° SSW 20:17:40 28° SSE 20:17:40 28° SSE visible
04 Feb 10.9 22:14:58 10° SW 22:19:00 24° SW 22:19:00 24° SW visible
05 Feb12.000:57:57ESE00:57:57ESE00:20:20Wvisible
05 Feb 11.2 02:59:17 23° SSE 02:59:17 23° SSE 03:04:14 10° SSE visible
05 Feb 11.2 05:00:38 16° SW 05:00:38 16° SW 05:07:22 10° SSW visible
05 Feb 11.0 18:25:45 10° SE 18:27:14 10° SE 18:28:47 10° ESE visible
05 Feb 10.4 20:24:41 10° SSW 20:33:39 33° SSE 20:33:39 33° SSE visible
05 Feb 11.0 22:31:26 10° WSW 22:34:59 23° SW 22:34:59 23° SW visible
